TimeEDT,TemperatureF,Dew PointF,Humidity,Sea Level PressureIn,VisibilityMPH,Wind Direction,Wind SpeedMPH,Gust SpeedMPH,PrecipitationIn,Events,Conditions,WindDirDegrees,DateUTC
12:53 AM,60.1,57.9,93,30.04,7.0,Calm,Calm,-,N/A,,Mostly Cloudy,0,2013-09-24 04:53:00
1:53 AM,60.1,57.9,93,30.03,7.0,Calm,Calm,-,N/A,,Overcast,0,2013-09-24 05:53:00
2:53 AM,60.1,57.9,93,30.03,6.0,Calm,Calm,-,N/A,,Overcast,0,2013-09-24 06:53:00
3:53 AM,59.0,57.0,93,30.03,7.0,Calm,Calm,-,N/A,,Overcast,0,2013-09-24 07:53:00
4:53 AM,60.1,57.0,90,30.02,8.0,Calm,Calm,-,N/A,,Overcast,0,2013-09-24 08:53:00
5:53 AM,61.0,57.9,90,30.03,9.0,Calm,Calm,-,N/A,,Overcast,0,2013-09-24 09:53:00
6:53 AM,61.0,57.9,90,30.04,8.0,Calm,Calm,-,N/A,,Overcast,0,2013-09-24 10:53:00
7:53 AM,60.1,57.0,90,30.06,7.0,Calm,Calm,-,N/A,,Mostly Cloudy,0,2013-09-24 11:53:00
8:53 AM,63.0,57.0,81,30.05,10.0,Calm,Calm,-,N/A,,Clear,0,2013-09-24 12:53:00
9:53 AM,66.0,55.9,70,30.05,10.0,Calm,Calm,-,N/A,,Clear,0,2013-09-24 13:53:00
10:53 AM,69.1,57.0,65,30.04,10.0,Calm,Calm,-,N/A,,Clear,0,2013-09-24 14:53:00
11:53 AM,71.1,57.0,61,30.03,10.0,Calm,Calm,-,N/A,,Clear,0,2013-09-24 15:53:00
12:53 PM,71.1,55.9,59,30.00,10.0,Calm,Calm,-,N/A,,Mostly Cloudy,0,2013-09-24 16:53:00
1:53 PM,73.0,55.0,53,29.98,10.0,Calm,Calm,-,N/A,,Mostly Cloudy,0,2013-09-24 17:53:00
2:53 PM,73.0,55.0,53,29.96,10.0,Calm,Calm,-,N/A,,Mostly Cloudy,0,2013-09-24 18:53:00
3:53 PM,75.0,57.0,53,29.93,10.0,East,4.6,-,N/A,,Scattered Clouds,80,2013-09-24 19:53:00
4:53 PM,75.0,55.9,51,29.92,10.0,Variable,4.6,-,N/A,,Clear,0,2013-09-24 20:53:00
5:53 PM,73.9,55.9,53,29.91,10.0,Calm,Calm,-,N/A,,Scattered Clouds,0,2013-09-24 21:53:00
6:53 PM,71.1,57.9,63,29.92,10.0,Calm,Calm,-,N/A,,Clear,0,2013-09-24 22:53:00
7:53 PM,66.9,57.9,73,29.92,10.0,Calm,Calm,-,0.00,,Clear,0,2013-09-24 23:53:00
8:53 PM,64.9,57.9,78,29.92,10.0,South,4.6,-,N/A,,Clear,190,2013-09-25 00:53:00
9:53 PM,64.0,57.9,80,29.93,10.0,Calm,Calm,-,N/A,,Clear,0,2013-09-25 01:53:00
10:53 PM,63.0,57.9,84,29.92,10.0,Calm,Calm,-,N/A,,Clear,0,2013-09-25 02:53:00
11:53 PM,62.1,59.0,90,29.92,7.0,Calm,Calm,-,N/A,,Partly Cloudy,0,2013-09-25 03:53:00